Showing default

OPTISAT, 68418

Orbit data source: Space-Track

OPTISAT, 68418 is a Greek payload satellite in SSO that was launched on Mon, 30 Mar 2026 UTC via an FALCON 9 launch vehicle from the Air Force Western Test Range (AFWTR). Payload-class satellites include a variety of spacecraft equipped with specific instruments for various scientific and technological missions. These include communications satellites like Starlink; space stations such as the ISS; scientific satellites like the Hubble; Earth observation satellites from companies like Planet Labs, Umbra, and HawkEye 360; GPS; miniature CubeSats for education and research; and military/defense satellites.

Loading next visibility...
Identifier
68418, 2026-067C
Orbit
SSO
Country
Flag of GRGR / GREC
Related business
Manufacturer
PLANH
Mission
Operational Commercial Technology
Bus & Motor
CUBESAT 6U, Unknown motor
Mass
~10 kg wet, ~10 kg dry
Launch date (UTC)
2026-03-30 (6 months ago)
Launch vehicle
FALCON 9
Launch site
Air Force Western Test Range (AFWTR)
Object type
Payload
Rocket body
Debris
Shape & HBR
Box, 0.2 m
Radar Cross Section
0.035 m², Medium (>0.1 m² and < 1m²)

Expand to show TLE details & history
Last TLE update: 7 hours ago

TLE from 7 hours ago
0 OPTISAT
1 68418U 26067C   26263.14464531  .00003254  00000-0  15567-3 0  9996
2 68418  97.4690 220.6108 0002046  14.6357 345.4936 15.19687369 26367
Epoch: 2026-09-20T03:28Z
TLE epoch observation values (Epoch: 2026-09-20T03:28:17.354Z)
Latitude
-0.00011°
Longitude
169.49547°
Altitude
508.509 km
Speed
7.61 km/s
True Right ascension
14h 42m 26s
True Declination
0° 00' 00"
Sunlit
Object was in daylight at epoch
Visualization orbit readout
Latitude
Unknown
Longitude
Unknown
Altitude
Unknown
Speed
Unknown
Apparent Right ascension
Unknown
Apparent Declination
Unknown
Sunlit
N/A
Visualization observer readout
Local Sidereal Time
03:11:43
Azimuth
Unknown
Elevation
Unknown
Doppler factor
Unknown
Orbital elements
Apogee altitude
505.162 km
Perigee altitude
502.346 km
Semi-major axis
6,881.891 km
Eccentricity
0.0002
Inclination
97.469°
RAAN
220.6108°
Arg. of periapsis
14.6357°
True anomaly
345.48773°
Mean anomaly
345.4936°
Eccentric anomaly
345.49066°
Mean motion
3.80173 °/min
Orbital period
94.69 mins
BSTAR
0.00015567
Loading maneuver chart data...
Computing Atmospheric mass density...
Loading historical data...
Loading historical data...
Loading historical data...
Loading historical data...
Loading historical data...
Loading historical data...
Loading historical data...

Documentation

Showing up to 5 results
|